[[{"header":{"parameterUnit":"m.s-1","parameterCategory":1,"la1":30.2991,"la2":30.254,"lo1":-89.0895,"lo2":-89.0444,"dy":0.0017,"dx":0.0017,"nx":28,"ny":28,"refTime":"2026-01-10T03:00:00:Z","depth":0,"parameterNumber":2,"parameterNumberName":"U-component_of_WINDS"},"data":[0,0,0,0,0,0,0,0,0,0,0,0,0,0,0,0,0,0,0,0,0,0,0,0,0,0,0,0,0,0,0,0,0,0,0,0,0,0,0,0,0,0,0,0,0,0,0,0,0,0,0,0,0,0,0,0,0,0,0.0979,0.0979,0,0.0956,0.0956,0.0955,0.0929,0.0929,0.0929,0.0928,0.0903,0.0903,0.0903,0,0,0,0,0,0,0,0,0,0,0,0,0,0.1001,0.1,0.0979,0.0979,0.0979,0.0956,0.0956,0.0955,0.0929,0.0929,0.0929,0.0928,0.0903,0.0903,0.0903,0,0,0,0,0,0,0,0,0,0,0,0,0,0.0986,0.1,0.0979,0.0963,0.0961,0.0956,0.0956,0.0955,0.093,0.0929,0.0928,0.0928,0.0904,0.0903,0.0903,0.0911,0,0,0.0901,0.0901,0,0,0,0,0,0,0,0,0.0987,0.0985,0.0966,0.0964,0.0962,0.0945,0.0954,0.094,0.093,0.0942,0.0928,0.0928,0.0918,0.0916,0.0913,0.091,0.0909,0.0901,0.0901,0.0901,0.0901,0,0,0,0,0,0,0,0.0988,0.0986,0.097,0.0966,0.0963,0.0957,0.0954,0.0951,0.0933,0.0941,0.0939,0.0936,0.0917,0.0913,0.0912,0.0908,0.0901,0.0901,0.0901,0.09,0.091,0.0911,0,0,0,0,0,0,0.0991,0.0987,0.0971,0.0969,0.0973,0.0957,0.0954,0.0951,0.0933,0.093,0.0937,0.0935,0.0914,0.0913,0.0911,0.0919,0.0901,0.09,0.09,0.091,0.091,0.0911,0,0,0,0,0,0,0.0992,0.099,0.0972,0.0978,0.0975,0.0957,0.0954,0.0951,0.0948,0.093,0.0927,0.0937,0.0914,0.0912,0.0911,0.0918,0.09,0.09,0.0909,0.091,0.0911,0.0936,0,0,0,0,0,0,0.0993,0.099,0.0994,0.0978,0.0974,0.0973,0.0955,0.0951,0.0947,0.0945,0.0929,0.0926,0.0913,0.0912,0.0911,0.0917,0.0899,0.0908,0.091,0.091,0.0935,0.0938,0.094,0,0,0,0,0,0.0993,0.1002,0.0994,0.0992,0.0978,0.0973,0.0971,0.0956,0.0948,0.0951,0.0939,0.0927,0.0917,0.0912,0.091,0.0917,0.0908,0.0909,0.091,0.0933,0.0937,0.094,0,0,0,0,0,0,0.1019,0.1,0.0991,0.0994,0.0986,0.0969,0.0972,0.0961,0.0954,0.0953,0.0934,0.0931,0.0932,0.0924,0.0919,0.0924,0.0911,0.0912,0.0929,0.0932,0.0935,0.0937,0.0899,0,0,0,0,0,0.1025,0.1023,0.1006,0.1011,0.1007,0.099,0.0988,0.0977,0.0967,0.0963,0.0952,0.0942,0.0937,0.0934,0.0929,0.0933,0.0929,0.0937,0.0939,0.0942,0.0943,0.0944,0.0947,0.0915,0.0915,0.0915,0,0,0.1038,0.1027,0.1027,0.1015,0.1008,0.1005,0.0987,0.0986,0.0984,0.0963,0.0962,0.0953,0.0941,0.0943,0.0943,0.0936,0.0951,0.0944,0.0946,0.0945,0.0946,0.0949,0.0952,0.0916,0.0916,0.0916,0,0,0.106,0.1051,0.1054,0.1046,0.1034,0.1023,0.1024,0.1009,0.1002,0.1001,0.0985,0.0982,0.0973,0.0966,0.096,0.0978,0.0966,0.0977,0.0992,0.0994,0.0996,0.0999,0.1005,0.1007,0.0978,0.0978,0.0978,0,0.1077,0.1073,0.1057,0.1056,0.1052,0.1032,0.1035,0.1028,0.1015,0.1012,0.1005,0.0993,0.0984,0.0984,0.0988,0.0985,0.0984,0.0979,0.0997,0.0999,0.1001,0.1007,0.1009,0.098,0.0979,0.0979,0.0979,0,0.1094,0.1092,0.1096,0.1084,0.1079,0.108,0.1064,0.1062,0.1051,0.104,0.1039,0.1027,0.1018,0.1017,0.1007,0.1015,0.1011,0.1001,0.0988,0.1006,0.1011,0.1013,0.0982,0.0981,0.0981,0.098,0,0,0.1132,0.1111,0.1113,0.1107,0.1092,0.109,0.1089,0.1081,0.1079,0.107,0.1069,0.1062,0.1053,0.1047,0.1035,0.1036,0.1051,0.1026,0.1025,0.1031,0.1059,0.1067,0.107,0.1043,0.1043,0.1043,0.106,0,0.1151,0.115,0.1136,0.1139,0.1136,0.1117,0.1117,0.1107,0.1097,0.1093,0.1082,0.1077,0.1065,0.1061,0.1061,0.1049,0.1056,0.1048,0.1041,0.1041,0.1045,0.1073,0.1081,0.1098,0.1062,0.1062,0.1062,0,0.1174,0.1167,0.117,0.1154,0.1152,0.1153,0.1144,0.114,0.1129,0.1121,0.1114,0.1101,0.1099,0.1087,0.1083,0.1078,0.1074,0.1067,0.1068,0.1067,0.1053,0.1072,0.1103,0.1105,0.1065,0.1065,0.1065,0,0.1201,0.1192,0.1192,0.1188,0.117,0.1171,0.1163,0.1151,0.1147,0.1139,0.1136,0.1127,0.1123,0.1116,0.1101,0.1093,0.1099,0.1085,0.1092,0.1093,0.1095,0.1095,0.1125,0.1092,0.1092,0.1092,0.1092,0,0.1224,0.1227,0.1204,0.1205,0.1207,0.1189,0.1191,0.1182,0.1171,0.1169,0.1152,0.115,0.113,0.1125,0.1113,0.1112,0.111,0.1103,0.11,0.1105,0.1106,0.1103,0.1101,0.1093,0.1093,0.1093,0.1093,0,0.1255,0.124,0.124,0.1223,0.1218,0.1221,0.1206,0.1205,0.1194,0.1191,0.1189,0.1171,0.1165,0.1149,0.1139,0.113,0.1132,0.1126,0.1136,0.1134,0.1143,0.1142,0.1171,0.1174,0.114,0.114,0.1141,0,0.1271,0.1272,0.1256,0.1253,0.1246,0.1242,0.1238,0.1221,0.1217,0.1203,0.1204,0.1197,0.119,0.118,0.1166,0.1158,0.1151,0.1162,0.115,0.1155,0.1151,0.1152,0.1151,0.1165,0.1166,0.1166,0.1166,0,0.13,0.1293,0.1288,0.128,0.1275,0.1268,0.1259,0.1258,0.1238,0.1235,0.1228,0.1223,0.1212,0.1205,0.1194,0.1186,0.1173,0.117,0.1171,0.1176,0.1182,0.1179,0.1144,0.117,0.1169,0.1169,0.1169,0.1169,0.1324,0.1324,0.1313,0.1307,0.1299,0.1292,0.129,0.1279,0.1273,0.1263,0.1253,0.1248,0.1235,0.122,0.1212,0.1207,0.12,0.1202,0.1202,0.1203,0.1205,0.1183,0.1205,0.1205,0.1205,0.1205,0.1205,0,0.1353,0.1344,0.1339,0.1328,0.1324,0.1312,0.1302,0.1299,0.1295,0.1284,0.1278,0.127,0.1263,0.1248,0.1239,0.1238,0.1231,0.1236,0.1236,0.1234,0.1212,0.1212,0.1241,0.1241,0.1241,0.1241,0.1241,0.1241,0.1367,0.1367,0.1358,0.1353,0.1344,0.134,0.1335,0.1328,0.1319,0.1312,0.1306,0.1296,0.1284,0.1273,0.1266,0.1261,0.1259,0.1265,0.1259,0.1239,0.1235,0.1232,0.1232,0.1265,0.1265,0.1281,0.1281,0.1281]},{"header":{"parameterUnit":"m.s-1","parameterCategory":1,"la1":30.2991,"la2":30.254,"lo1":-89.0895,"lo2":-89.0444,"dy":0.0017,"dx":0.0017,"nx":28,"ny":28,"refTime":"2026-01-10T03:00:00:Z","depth":0,"parameterNumber":3,"parameterNumberName":"V-component_of_WINDS"},"data":[0,0,0,0,0,0,0,0,0,0,0,0,0,0,0,0,0,0,0,0,0,0,0,0,0,0,0,0,0,0,0,0,0,0,0,0,0,0,0,0,0,0,0,0,0,0,0,0,0,0,0,0,0,0,0,0,0,0,4.1161,4.1163,0,4.1306,4.1308,4.131,4.1331,4.133,4.1328,4.1327,4.1475,4.148,4.1485,0,0,0,0,0,0,0,0,0,0,0,0,0,4.0902,4.0906,4.1161,4.1163,4.1165,4.1306,4.1308,4.131,4.1331,4.1329,4.1328,4.1326,4.1473,4.1479,4.1486,0,0,0,0,0,0,0,0,0,0,0,0,0,4.1027,4.0908,4.1161,4.1192,4.1196,4.1306,4.1308,4.1311,4.1331,4.1329,4.1327,4.1326,4.1471,4.1479,4.1486,4.1574,0,0,4.151,4.1513,0,0,0,0,0,0,0,0,4.102,4.1037,4.1186,4.119,4.1195,4.1298,4.1271,4.1399,4.1332,4.128,4.1327,4.1325,4.1418,4.143,4.1461,4.1581,4.1587,4.1511,4.1516,4.1519,4.1521,0,0,0,0,0,0,0,4.1012,4.1031,4.1218,4.1188,4.1194,4.1199,4.1215,4.1295,4.1358,4.1284,4.1286,4.1303,4.142,4.1454,4.1465,4.1589,4.1511,4.1517,4.1522,4.1525,4.1791,4.1793,0,0,0,0,0,0,4.0997,4.1023,4.1214,4.1223,4.1101,4.1205,4.1223,4.1267,4.1357,4.1369,4.1305,4.1304,4.1442,4.1456,4.147,4.1581,4.1519,4.1526,4.1531,4.1789,4.1791,4.1794,0,0,0,0,0,0,4.0991,4.1014,4.1208,4.1124,4.1149,4.1212,4.1262,4.1271,4.1305,4.1373,4.1384,4.1328,4.1441,4.1459,4.1549,4.1587,4.153,4.1537,4.1786,4.1789,4.1793,4.1802,0,0,0,0,0,0,4.0984,4.1012,4.1046,4.1124,4.1153,4.1284,4.1264,4.1275,4.1319,4.1319,4.1398,4.1409,4.144,4.1537,4.1556,4.1596,4.1543,4.1783,4.1787,4.1792,4.1799,4.1805,4.1811,0,0,0,0,0,4.0975,4.1042,4.1047,4.107,4.1197,4.1286,4.1303,4.1338,4.1321,4.1356,4.14,4.1406,4.1579,4.1546,4.1568,4.1611,4.1781,4.1786,4.1791,4.1796,4.1804,4.1811,0,0,0,0,0,0,4.0965,4.1052,4.106,4.1154,4.1213,4.1289,4.1334,4.1345,4.1409,4.1407,4.1447,4.1465,4.1553,4.159,4.1552,4.1701,4.1678,4.1688,4.1674,4.1683,4.1689,4.1679,4.1549,0,0,0,0,0,4.0974,4.1039,4.1112,4.1188,4.1217,4.1271,4.1311,4.1333,4.1395,4.142,4.147,4.153,4.1598,4.1642,4.1708,4.1803,4.1822,4.1844,4.185,4.1855,4.1864,4.192,4.1931,4.1812,4.1812,4.1812,0,0,4.0993,4.1049,4.1087,4.1188,4.1236,4.1303,4.1291,4.1362,4.1413,4.1431,4.1519,4.1558,4.1628,4.1721,4.1765,4.1755,4.1901,4.1862,4.1865,4.1872,4.1926,4.1937,4.1947,4.1816,4.1815,4.1814,0,0,4.1062,4.111,4.1181,4.1229,4.1302,4.1338,4.1354,4.143,4.1457,4.1546,4.1562,4.1622,4.1738,4.1788,4.1828,4.1918,4.1927,4.1938,4.1972,4.2026,4.2035,4.2044,4.2078,4.209,4.1946,4.1946,4.1946,0,4.1077,4.1179,4.1215,4.1287,4.1331,4.1351,4.1423,4.1468,4.1558,4.1589,4.1577,4.1724,4.1772,4.1878,4.1901,4.1932,4.1953,4.193,4.2031,4.204,4.2048,4.2082,4.2094,4.1947,4.1947,4.1947,4.1947,0,4.1194,4.1265,4.1312,4.1401,4.1451,4.1522,4.1569,4.1615,4.1633,4.167,4.1762,4.182,4.1899,4.1926,4.1943,4.2036,4.2028,4.2022,4.2001,4.206,4.2093,4.2105,4.1949,4.1949,4.1948,4.1948,0,0,4.1262,4.1371,4.1388,4.1429,4.1512,4.1568,4.164,4.1718,4.1758,4.1819,4.1883,4.198,4.1977,4.2023,4.2046,4.2093,4.2164,4.2083,4.2085,4.2098,4.2272,4.2277,4.2291,4.2169,4.2172,4.2174,4.2267,0,4.1343,4.1474,4.1509,4.162,4.1687,4.1707,4.177,4.1828,4.1865,4.1927,4.1967,4.2037,4.2025,4.2054,4.2101,4.2145,4.22,4.2139,4.223,4.2233,4.2214,4.2308,4.2313,4.2398,4.2279,4.2282,4.2283,0,4.1455,4.1521,4.1639,4.1716,4.1745,4.1801,4.1877,4.1936,4.2002,4.2025,4.2077,4.2097,4.2174,4.2146,4.2254,4.2212,4.2251,4.2279,4.2283,4.2295,4.2263,4.2324,4.2426,4.2439,4.2303,4.2301,4.23,0,4.1496,4.1614,4.1701,4.1735,4.1825,4.1865,4.1904,4.1969,4.2014,4.208,4.2111,4.2184,4.2225,4.2282,4.2321,4.2297,4.2426,4.2401,4.2449,4.2449,4.2477,4.2475,4.2589,4.2498,4.2498,4.2498,4.2498,0,4.1585,4.1657,4.1721,4.1774,4.1856,4.1896,4.1975,4.2015,4.2073,4.2135,4.2156,4.2213,4.2261,4.2325,4.2356,4.2442,4.2459,4.2481,4.2489,4.2481,4.2479,4.2509,4.2505,4.2501,4.2501,4.25,4.2499,0,4.1645,4.169,4.1787,4.1865,4.1886,4.1943,4.201,4.2063,4.21,4.2179,4.2199,4.2258,4.2335,4.2379,4.2476,4.2497,4.2593,4.2597,4.2571,4.2575,4.2622,4.2618,4.2761,4.2783,4.2675,4.2676,4.2677,0,4.1699,4.1756,4.184,4.1884,4.1924,4.1993,4.2041,4.2082,4.213,4.2211,4.2255,4.2333,4.2398,4.2521,4.2572,4.2646,4.2654,4.2699,4.2665,4.2656,4.2658,4.2655,4.2662,4.2705,4.2706,4.2707,4.2708,0,4.1792,4.1812,4.188,4.1956,4.2012,4.2073,4.2134,4.2169,4.222,4.2273,4.2353,4.2404,4.2503,4.2582,4.2661,4.2701,4.2714,4.2717,4.2733,4.2727,4.2711,4.2723,4.259,4.2715,4.2714,4.2713,4.2713,4.2713,4.1853,4.1905,4.1974,4.2049,4.2099,4.2156,4.2211,4.2255,4.2323,4.2408,4.2427,4.2512,4.2578,4.2686,4.2729,4.2796,4.2788,4.281,4.2816,4.2821,4.2824,4.2698,4.281,4.281,4.281,4.2809,4.2809,0,4.1949,4.1995,4.2063,4.2149,4.2208,4.2215,4.2283,4.2332,4.2407,4.2468,4.2532,4.2624,4.2701,4.2758,4.2837,4.288,4.2887,4.2899,4.2898,4.2907,4.2825,4.2805,4.2892,4.2892,4.2892,4.2892,4.2891,4.2891,4.2006,4.2096,4.2124,4.2239,4.2284,4.2367,4.2406,4.2459,4.2509,4.2612,4.2676,4.2713,4.2773,4.2856,4.2927,4.2942,4.2971,4.2982,4.2999,4.2921,4.2913,4.2904,4.2886,4.2988,4.2988,4.3076,4.3076,4.3077]}]]